Flag for Canada Weather past 2 weeks in East Hants, Nova Scotia, Canada

Now
28 °F

Light snow. Overcast.


Feels Like: 21 °F
Forecast: 26 / 31 °F
Wind: 7 mph from North

Location: Halifax International Airport

Current Time: Dec 22, 2014 at 1:52:53 PM

Latest Report: Dec 22, 2014 at 1:00 PM


Visibility: 15 mi

Pressure: 30.44 "Hg

Humidity: 74%

Dew point: 21 °F

Location of East HantsLocation

Historic Weather in East Hants — Graph

°F

East Hants temperature yesterday

Maximum temperature yesterday: 30 °F (at 12:00 AM)
Minimum temperature yesterday: 28 °F (at 1:00 AM)
Average temperature yesterday: 29 °F

Past Weeks' High & Low Weather Summary

 TemperatureHumidityPressure
High52 °F (Dec 11, 11:00 AM)100% (Dec 9, 11:00 AM)30.78 "Hg (Dec 9, 11:00 AM)
Low10 °F (Dec 8, 5:00 AM)59% (Dec 7, 3:00 PM)29.36 "Hg (Dec 18, 3:00 PM)
Average34 °F90%29.98 "Hg
* Reported Dec 7 12:00 Noon — Dec 22 12:00 Noon, East Hants, Weather by CustomWeather, © 2014

Note: Actual official high and low records may vary slightly from our data, if they occured in-between our weather recording intervals... More about our weather records

Advertising

East Hants weather history for previous 24 hours

 ConditionsComfort  
Time TempWeatherWind HumidityBarometerVisibility
12:00 PM
Dec 22
28 °FLight snow. Overcast.7 mph74%30.46 "Hg15 mi
11:00 AM27 °FLight snow. Overcast.8 mph86%30.47 "Hg12 mi
10:00 AM27 °FLight snow. Overcast.8 mph80%30.47 "Hg15 mi
9:00 AM27 °FLight snow. Overcast.6 mph80%30.45 "Hg15 mi
8:00 AM27 °FOvercast.5 mph86%30.43 "Hg15 mi
7:00 AM27 °FOvercast.7 mph80%30.42 "Hg15 mi
6:00 AM27 °FOvercast.8 mph80%30.42 "Hg15 mi
5:00 AM27 °FOvercast.8 mph86%30.41 "Hg15 mi
4:00 AM27 °FLight snow. Overcast.8 mph86%30.41 "Hg15 mi
3:00 AM28 °FLight snow. Overcast.5 mph80%30.41 "Hg15 mi
2:00 AM28 °FOvercast.3 mph80%30.40 "Hg15 mi
1:00 AM28 °FOvercast.2 mph80%30.39 "Hg15 mi
12:00 AM28 °FOvercast.3 mph80%30.39 "Hg15 mi
11:00 PM
Dec 21
28 °FOvercast.3 mph86%30.38 "Hg15 mi
10:00 PM28 °FOvercast.5 mph86%30.37 "Hg15 mi
9:00 PM28 °FOvercast.5 mph86%30.38 "Hg15 mi
8:00 PM28 °FLight snow. Overcast.3 mph86%30.38 "Hg15 mi
7:00 PM30 °FOvercast.3 mph80%30.37 "Hg15 mi
6:00 PM30 °FOvercast.3 mph80%30.37 "Hg15 mi
5:00 PM30 °FOvercast.5 mph80%30.36 "Hg15 mi
4:00 PM30 °FOvercast.6 mph80%30.35 "Hg15 mi
3:00 PM30 °FOvercast.3 mph75%30.34 "Hg15 mi
2:00 PM30 °FOvercast.7 mph75%30.33 "Hg15 mi
1:00 PM30 °FOvercast.8 mph75%30.33 "Hg15 mi
Weather by CustomWeather, © 2014

See weather overviewHow to use our weather pages